Showing default

DMC 3-FM1, 40715

Orbit data source: Space-Track

DMC 3-FM1, 40715 is a payload satellite owned by DMCii (UK) in SSO that was launched on Fri, 10 Jul 2015 UTC via a PSLV-XL launch vehicle from the Sirharikota (SRI). Payload-class satellites include a variety of spacecraft equipped with specific instruments for various scientific and technological missions. These include communications satellites like Starlink; space stations such as the ISS; scientific satellites like the Hubble; Earth observation satellites from companies like Planet Labs, Umbra, and HawkEye 360; GPS; miniature CubeSats for education and research; and military/defense satellites.

Loading next visibility...
Identifier
40715, 2015-032A
Orbit
SSO
Last TLE update
6 hours ago
Origin
Manufacturer
SSTL (Astrium)
Mission
Operational Commercial Imaging
Bus & Motor
SSTL-300S1, Unknown motor
Mass
447 kg wet, 435 kg dry
Launch date (UTC)
2015-07-10 (10 years ago)
Launch vehicle
PSLV-XL
Launch site
Sirharikota (SRI)
Object type
Payload
Rocket body
Debris
Shape & HBR
Hept Cyl + Cyl, 2.5 m
Radar Cross Section
2.356 m², Large (>1 m²)

Expand to show TLE details & history

TLE from 6 hours ago
0 DMC 3-FM1
1 40715U 15032A   25183.59873172  .00000426  00000-0  55896-4 0  9998
2 40715  97.6961  56.5458 0006905 117.0920 243.1000 14.85103029538010
Epoch: 2025-07-02T14:22Z
TLE epoch observation values (Epoch: 2025-07-02T14:22:10.42Z)
Latitude
-0.00008°
Longitude
-79.87513°
Altitude
618.484 km
Speed
7.548 km/s
True Right ascension
03h 46m 10s
True Declination
0° 00' 00"
Sunlit
Object was in daylight at epoch
Visualization orbit readout
Latitude
-34.42797°
Longitude
-74.33521°
Altitude
630.524 km
Speed
7.54 km/s
Apparent Right ascension
00h 46m 52s
Apparent Declination
-54° 27' 22"
Sunlit
Object is in daylight
Visualization observer readout
Local Sidereal Time
08:24:59
Azimuth
228.42° WSW
Elevation
-45.009°
Doppler factor
1
Orbital elements
Apogee altitude
615.113 km
Perigee altitude
605.462 km
Semi-major axis
6,988.425 km
Eccentricity
0.00069
Inclination
97.6961°
RAAN
56.5458°
Arg. of periapsis
117.092°
True anomaly
Unknown
Mean anomaly
243.1°
Eccentric anomaly
Unknown
Mean motion
3.71513 °/min
Orbital period
96.9 mins
BSTAR
0.000055896
Loading maneuver chart data...
Loading SW <> Apogee altitude chart data...
Loading historical data...
Loading historical data...
Loading historical data...
Loading historical data...
Loading historical data...
Loading historical data...
Loading historical data...
Other satellites on launch #32 in the year 2015 (2015-07-10 UTC)

DMC 3-FM1 Visibility forecast

Observer location: undefined°, undefined°

Span
Click to sort rows by Start time (UTC) header in descending order
Start Az.
Max El. time (UTC)
Max El. Az.
Max El.
End time (UTC)
End Az.
7 mins2025-07-03 03:52:55.251Z33.547° NE2025-07-03 03:55:55.251Z87.035° E30.614°2025-07-03 03:59:55.251Z164.415° S
5 mins2025-07-03 14:46:55.251Z111.476° ESE2025-07-03 14:48:55.251Z72.973° E23.528°2025-07-03 14:51:55.251Z19.097° NNE
5 mins2025-07-03 16:22:55.251Z223.859° SW2025-07-03 16:24:55.251Z263.109° W23.151°2025-07-03 16:27:55.251Z315.716° NNW
|